Flag for U.S.A. Weather past 2 weeks in Kykotsmovi Village, Hopi, Arizona, U.S.A.

Now
64 °F

Light rain. Cloudy.


Feels Like: 64 °F
Forecast: 61 / 77 °F
Wind: 8 mph from East

Location: Winslow Municipal Airport

Current Time: Sep 17, 2014 at 9:47:35 AM

Latest Report: Sep 17, 2014 at 8:56 AM


Visibility: 10 mi

Pressure: 29.96 "Hg

Humidity: 97%

Dew point: 63 °F

Location of Kykotsmovi Village, HopiLocation

Historic Weather in Kykotsmovi Village, Hopi — Graph

°F

Kykotsmovi Village, Hopi temperature yesterday

Maximum temperature yesterday: 87 °F (at 2:56 PM)
Minimum temperature yesterday: 65 °F (at 6:56 AM)
Average temperature yesterday: 74 °F

Past Weeks' High & Low Weather Summary

 TemperatureHumidityPressure
High94 °F (Sep 2, 2:56 PM)97% (Sep 17, 8:56 AM)30.10 "Hg (Sep 17, 8:56 AM)
Low46 °F (Sep 11, 5:56 AM)10% (Sep 3, 1:56 PM)29.70 "Hg (Sep 3, 3:56 PM)
Average73 °F47%29.90 "Hg
* Reported Sep 2 8:56 AM — Sep 17 8:56 AM, Kykotsmovi Village, Hopi, Weather by CustomWeather, © 2014

Note: Actual official high and low records may vary slightly from our data, if they occured in-between our weather recording intervals... More about our weather records

Advertising

Kykotsmovi Village, Hopi weather history for previous 24 hours

 ConditionsComfort  
Time TempWeatherWind HumidityBarometerVisibility
8:56 AM
Sep 17
64 °FLight rain. Cloudy.8 mph97%29.96 "Hg10 mi
7:56 AM64 °FLight rain. Overcast.8 mph94%29.95 "Hg9 mi
6:56 AM63 °FLight rain. Overcast.8 mph93%29.95 "Hg7 mi
5:56 AM64 °FLight rain. Overcast.7 mph90%29.91 "Hg10 mi
4:56 AM65 °FMostly cloudy.3 mph91%29.91 "Hg10 mi
3:56 AM65 °FMostly cloudy.6 mph91%29.88 "Hg10 mi
2:56 AM65 °FMostly cloudy.3 mph91%29.87 "Hg10 mi
1:56 AM65 °FPassing clouds.3 mph91%29.89 "Hg10 mi
12:56 AM65 °FLight rain. Overcast.7 mph91%29.90 "Hg10 mi
11:56 PM
Sep 16
67 °FLight rain. Overcast.9 mph79%29.93 "Hg10 mi
10:56 PM69 °FPassing clouds.7 mph68%29.93 "Hg10 mi
9:56 PM70 °FPassing clouds.7 mph66%29.93 "Hg10 mi
8:56 PM71 °FOvercast.8 mph59%29.95 "Hg10 mi
7:56 PM72 °FOvercast.9 mph55%29.95 "Hg10 mi
6:56 PM73 °FPassing clouds.15 mph48%29.93 "Hg10 mi
5:56 PM75 °FSunny.20 mph50%29.90 "Hg10 mi
4:56 PM77 °FPartly sunny.21 mph45%29.88 "Hg10 mi
3:56 PM85 °FPartly sunny.20 mph29%29.84 "Hg10 mi
2:56 PM87 °FSunny.9 mph26%29.83 "Hg10 mi
1:56 PM86 °FScattered clouds.9 mph29%29.86 "Hg10 mi
12:56 PM84 °FSunny.7 mph33%29.91 "Hg10 mi
11:56 AM81 °FSunny.3 mph38%29.94 "Hg10 mi
10:56 AM79 °FSunny.3 mph44%29.97 "Hg10 mi
9:56 AM77 °FPassing clouds.7 mph48%29.98 "Hg10 mi
Weather by CustomWeather, © 2014

See weather overviewHow to use our weather pages